Location: Newark
(49.8969°N, 3.3422°E)
Time: 13:40:40
(UTC+00:00)

deb Explorer IX - Pass Details

Date: 20 January 2020
Orbit: 549 x 1099 km, 38.8° (Epoch: 24 February)

Event Time Altitude Azimuth Distance (km) Brightness Sun altitude
Rises 01:09:43 0° 242° (WSW) 3,899 - -57.1°
Reaches altitude 10° 01:12:50 10° 233° (SW) 2,922 - -56.8°
Maximum altitude 01:18:58 31° 174° (S) 1,716 - -56.2°
Drops below altitude 10° 01:24:40 10° 115° (ESE) 2,699 - -55.7°
Sets 01:27:26 0° 105° (ESE) 3,562 - -55.4°
